SCP
0 0 0 0 0 0 0 0 0 0 0 0 0 0 0 0 0 0 0 0 0 0 0 0 0 0 0 0 0 0 0 0 0 0 0 0 0 0 0 0 0 0 0
0 0 0 0 0 0 0 0 0 0 0 0 0 0 0 0 0 0 0 0 0 0 0 0 0 0 0 0 0 0 0 0 0 0 0 0 0 0 0 0 0 0 0
0 0 0 0 0 0 0 0 0 0 0 0 0 0 0 0 0 0 0 0 0 0 0 0 0 0 0 0 0 0 0 0 0 0 0 0 0 0 0 0 0 0 0
0 0 0 0 0 0 0 0 0 0 0 0 0 0 0 0 0 0 0 0 0 0 0 0 0 0 0 0 0 0 0 0 0 0 0 0 0 0 0 0 0 0 0
0 0 0 0 0 0 0 0 0 0 0 0 0 0 0 0 0 0 0 0 0 0 0 0 0 0 0 0 0 0 0 0 0 0 0 0 0 0 0 0 0 0 0
0 0 0 0 0 0 0 0 0 0 0 0 0 0 0 0 0 0 0 0 0 0 0 0 0 0 0 0 0 0 0 0 0 0 0 0 0 0 0 0 0 0 0
0 0 0 0 0 0 0 0 0 0 0 0 0 0 0 0 0 0 0 0 0 0 0 0 0 0 0 0 0 0 0 0 0 0 0 0 0 0 0 0 0 0 0
0 0 0 0 0 0 0 0 0 0 0 0 0 0 0 0 0 0 0 0 0 0 0 0 0 0 0 0 0 0 0 0 0 0 0 0 0 0 0 0 0 0 0
0 0 0 0 0 0 0 0 0 0 0 0 0 0 0 0 0 0 0 0 0 0 0 0 0 0 0 0 0 0 0 0 0 0 0 0 0 0 0 0 0 0 0
0 0 0 0 0 0 0 0 0 0 0 0 0 0 0 0 0 0 0 0 0 0 0 0 0 0 0 0 0 0 0 0 0 0 0 0 0 0 0 0 0 0 0
0 0 0 0 0 0 0 0 0 0 0 0 0 0 0 0 0 0 0 0 0 0 0 0 0 0 0 0 0 0 0 0 0 0 0 0 0 0 0 0 0 0 0
0 0 0 0 0 0 0 0 0 0 0 0 0 0 0 0 0 0 0 0 0 0 0 0 0 0 0 0 0 0 0 0 0 0 0 0 0 0 0 0 0 0 0
0 0 0 0 0 0 0 0 0 0 0 0 0 0 0 0 0 0 0 0 0 0 0 0 0 0 0 0 0 0 0 0 0 0 0 0 0 0 0 0 0 0 0
0 0 0 0 0 0 0 0 0 0 0 0 0 0 0 0 0 0 0 0 0 0 0 0 0 0 0 0 0 0 0 0 0 0 0 0 0 0 0 0 0 0 0
0 0 0 0 0 0 0 0 0 0 0 0 0 0 0 0 0 0 0 0 0 0 0 0 0 0 0 0 0 0 0 0 0 0 0 0 0 0 0 0 0 0 0
0 0 0 0 0 0 0 0 0 0 0 0 0 0 0 0 0 0 0 0 0 0 0 0 0 0 0 0 0 0 0 0 0 0 0 0 0 0 0 0 0 0 0
0 0 0 0 0 0 0 0 0 0 0 0 0 0 0 0 0 0 0 0 0 0 0 0 0 0 0 0 0 0 0 0 0 0 0 0 0 0 0 0 0 0 0
0 0 0 0 0 0 0 0 0 0 0 0 0 0 0 0 0 0 0 0 0 0 0 0 0 0 0 0 0 0 0 0 0 0 0 0 0 0 0 0 0 0 0
0 0 0 0 0 0 0 0 0 0 0 0 0 0 0 0 0 0 0 0 0 0 0 0 0 0 0 0 0 0 0 0 0 0 0 0 0 0 0 0 0 0 0
0 0 0 0 0 0 0 0 0 0 0 0 0 0 0 0 0 0 0 0 0 0 0 0 0 0 0 0 0 0 0 0 0 0 0 0 0 0 0 0 0 0 0
0 0 0 0 0 0 0 0 0 0 0 0 0 0 0 0 0 0 0 0 0 0 0 0 0 0 0 0 0 0 0 0 0 0 0 0 0 0 0 0 0 0 0
0 0 0 0 0 0 0 0 0 0 0 0 0 0 0 0 0 0 0 0 0 0 0 0 0 0 0 0 0 0 0 0 0 0 0 0 0 0 0 0 0 0 0
0 0 0 0 0 0 0 0 0 0 0 0 0 0 0 0 0 0 0 0 0 0 0 0 0 0 0 0 0 0 0 0 0 0 0 0 0 0 0 0 0 0 0
0 0 0 0 0 0 0 0 0 0 0 0 0 0 0 0 0 0 0 0 0 0 0 0 0 0 0 0 0 0 0 0 0 0 0 0 0 0 0 0 0 0 0
0 0 0 0 0 0 0 0 0 0 0 0 0 0 0 0 0 0 0 0 0 0 -0 0 0 0 0 0 0 0 0 0 0 0 0 0 0 0 0 0 0 0 0
0 0 0 0 0 0 0 0 0 0 0 0 0 0 0 0 0 0 0 0 0 -0 -0 0 0 0 0 0 0 0 0 0 0 0 0 0 0 0 0 0 0 0 0
Wind_Speed_500mb
32 37 41 43 47 48 49 50 50 50 45 42 41 38 32 28 21 24 28 27 20 19 15 14 23 25 25 23 24 21 21 20 21 22 21 23 24 26 27 27 27 18 26
29 36 45 48 48 48 48 49 49 48 49 47 43 41 37 36 31 22 20 22 25 24 20 20 16 18 27 28 28 28 25 24 22 22 20 21 23 24 25 26 23 19 22
33 40 50 50 47 48 49 48 48 48 48 47 45 43 42 41 40 36 33 28 24 18 25 24 27 26 20 26 31 31 31 31 28 27 26 20 18 25 24 25 23 22 19
35 44 53 59 59 58 55 50 48 47 45 45 46 45 42 38 38 38 37 35 34 27 23 27 29 30 36 32 26 33 35 34 34 31 27 21 22 29 26 25 24 22 21
37 43 49 61 62 59 53 51 50 49 48 46 45 42 43 42 40 39 37 36 39 42 35 29 27 39 34 38 38 34 33 40 40 37 29 28 27 28 30 29 26 23 23
41 45 51 65 64 63 62 60 57 54 53 51 47 44 44 43 43 43 40 38 36 41 44 36 28 27 28 37 38 42 44 38 41 38 33 35 38 31 36 32 29 29 31
45 50 52 65 67 68 69 69 66 63 59 50 49 49 48 47 46 45 44 40 40 37 41 38 35 22 24 24 29 42 44 49 45 41 36 36 34 40 40 39 35 33 37
44 46 47 52 60 67 69 69 66 55 46 47 51 47 46 45 45 44 44 40 41 40 43 35 35 35 30 25 21 31 48 52 50 54 47 33 36 47 45 45 42 40 41
43 47 52 50 55 58 61 63 61 63 62 58 53 50 50 48 44 44 46 47 50 47 44 38 37 33 34 34 30 28 39 49 47 39 58 47 36 48 48 49 50 47 45
49 52 52 51 53 56 57 55 58 59 59 57 58 59 54 56 48 48 48 50 51 55 47 42 40 38 36 33 31 34 38 50 40 50 45 54 60 51 52 50 53 55 53
51 52 49 50 50 51 51 50 52 50 50 49 46 46 48 42 43 45 44 46 46 48 45 45 42 42 39 51 55 46 46 30 36 31 40 49 58 56 50 53 51 56 56
58 55 52 50 50 51 47 49 46 47 46 46 45 42 40 41 41 44 48 49 55 53 47 47 43 45 48 41 34 43 43 35 32 31 30 46 43 50 56 52 52 52 57
54 52 53 49 51 50 50 46 43 46 45 43 43 46 41 39 37 36 36 34 33 35 38 37 39 38 36 37 34 35 37 39 37 34 30 45 45 42 44 55 54 59 51
52 52 52 49 48 47 45 48 48 48 49 43 47 48 43 41 37 34 34 35 35 32 33 34 35 36 36 39 39 38 40 42 40 35 45 48 43 43 38 35 47 53 56
52 52 50 50 47 50 48 51 47 49 48 47 51 48 43 44 42 37 33 34 36 36 35 32 33 35 35 37 40 39 39 42 44 40 35 47 51 43 44 38 40 47 51
52 53 51 51 49 50 47 50 47 47 47 49 45 44 43 43 43 41 42 40 35 34 36 34 32 32 34 34 36 38 39 38 41 43 41 34 47 50 45 46 43 42 40
51 53 50 55 49 52 51 47 49 47 49 46 48 46 45 44 43 44 44 44 43 36 33 33 35 35 34 33 36 35 38 39 39 44 43 40 34 41 47 49 47 47 46
51 47 54 52 53 52 50 48 47 48 49 49 49 47 52 49 46 46 47 46 45 41 35 29 30 34 35 35 35 36 37 39 39 43 44 42 39 34 32 44 47 49 49
48 50 52 55 52 55 50 45 46 46 47 48 45 44 51 50 51 50 51 47 42 42 40 36 29 28 33 37 37 38 38 39 41 42 45 45 42 37 34 34 39 46 50
46 49 50 50 50 53 45 45 45 45 52 50 49 50 48 51 52 50 48 44 40 39 39 37 34 29 27 30 37 41 39 41 41 44 43 48 44 40 37 35 29 32 42
48 49 49 52 53 52 49 53 52 57 61 53 41 47 47 52 50 48 42 39 37 38 36 37 35 33 30 25 29 37 43 43 44 46 46 46 47 43 38 37 33 31 31
51 49 49 52 52 51 48 52 54 60 54 49 49 49 49 49 46 40 42 37 37 36 36 35 34 33 28 25 24 28 37 41 47 50 51 51 53 49 45 41 35 33 30
51 50 53 53 52 51 51 54 56 51 48 46 50 54 61 49 44 39 34 34 36 35 34 34 36 38 36 25 23 26 17 31 32 35 49 53 52 54 50 44 39 34 30
50 46 49 53 53 49 50 53 53 55 57 55 55 54 58 53 45 37 38 36 37 35 34 34 34 36 36 34 25 30 43 25 11 23 31 43 52 55 52 47 42 36 32
47 45 48 51 50 50 51 48 51 56 54 61 56 55 56 56 46 43 34 33 32 35 32 36 29 32 34 34 28 23 26 36 38 32 25 25 44 54 55 51 43 38 33
45 46 49 52 51 49 52 49 48 53 55 63 63 62 62 58 53 47 47 38 29 29 28 24 17 21 27 32 28 26 27 25 31 36 39 33 33 44 51 50 46 38 32
Wind_Direction_500mb
347 350 348 355 354 353 351 351 347 340 341 341 344 340 339 332 335 340 337 335 320 293 281 282 275 269 260 257 251 251 256 254 248 245 245 245 244 243 244 241 242 243 241
345 341 338 341 347 348 347 344 343 341 335 333 331 329 333 323 307 317 318 320 314 317 284 260 258 262 261 256 251 246 250 254 250 247 247 249 250 245 242 243 233 225 241
344 338 331 335 341 340 339 337 336 334 330 330 329 328 324 322 321 315 308 302 299 311 307 284 264 258 252 254 253 248 244 246 249 250 251 249 247 249 239 235 232 228 224
339 331 328 325 326 327 330 333 329 328 325 322 320 318 318 317 316 313 311 303 300 291 277 288 272 264 257 250 247 247 242 240 244 254 252 244 240 253 238 229 224 232 214
336 332 326 320 321 322 328 329 328 324 323 320 315 310 308 307 307 308 307 302 296 284 282 266 288 257 260 256 251 244 241 241 238 239 238 237 236 243 237 230 228 230 216
334 331 326 319 318 318 317 318 320 320 316 314 310 306 302 301 298 298 297 296 299 290 275 277 286 280 280 261 255 249 242 239 239 239 235 232 235 230 236 231 229 224 226
333 328 325 318 315 313 313 313 312 312 312 311 307 303 298 295 293 290 291 291 290 295 284 273 285 263 258 277 278 255 251 244 243 237 233 230 236 237 233 231 233 229 229
331 329 328 325 321 317 315 314 314 318 314 310 308 302 298 293 289 286 287 281 284 288 282 287 284 280 272 246 266 274 247 243 241 244 238 233 234 232 232 230 233 234 237
335 334 334 333 329 326 323 320 317 313 310 306 305 298 294 293 287 283 277 281 280 283 281 281 279 281 275 271 245 247 257 252 243 244 241 245 247 238 238 239 237 236 239
338 335 335 335 333 330 328 328 322 321 320 314 305 299 296 291 290 285 283 285 279 277 278 275 272 275 274 268 259 232 242 244 248 242 245 241 245 249 242 240 242 245 243
336 336 334 334 336 335 335 331 333 331 330 329 323 314 309 302 290 288 285 284 281 276 272 268 268 268 272 259 247 237 240 247 244 248 241 242 240 241 245 243 242 244 246
335 336 334 331 333 335 333 331 332 332 330 329 326 324 318 308 298 287 287 286 279 275 266 262 261 265 265 265 260 252 248 245 249 244 244 241 237 239 238 244 244 242 244
333 331 333 331 331 333 333 333 328 326 328 327 322 322 323 314 308 300 294 290 284 280 275 268 266 265 259 253 253 250 245 245 248 242 246 248 241 237 240 238 245 249 244
335 334 335 333 332 332 327 328 330 331 333 330 328 324 323 322 313 305 298 290 287 280 274 269 263 259 258 255 253 253 249 247 248 250 241 247 252 245 239 240 240 249 245
338 336 337 338 334 334 329 332 331 330 332 330 327 330 333 322 317 311 303 295 285 281 276 271 263 261 258 255 250 249 250 246 245 245 246 246 247 249 244 242 238 242 248
339 338 337 338 336 337 331 332 334 336 330 328 325 325 326 318 316 312 310 301 290 283 275 271 266 260 256 254 251 246 248 246 242 241 239 245 245 245 246 243 242 244 246
341 339 336 339 337 339 336 336 335 333 329 325 323 322 324 326 321 315 308 303 298 284 280 278 271 262 260 258 252 249 247 248 246 241 238 235 244 245 244 247 247 246 247
342 342 341 342 341 340 342 337 335 331 328 325 321 320 323 327 328 319 310 304 300 297 290 277 270 265 260 255 252 250 248 244 243 240 234 234 233 231 251 241 243 249 252
347 342 342 345 344 342 339 340 336 332 330 326 323 320 322 325 330 323 314 302 299 291 290 286 276 267 261 255 254 251 247 244 239 238 234 232 230 231 234 248 243 248 252
348 346 346 347 347 344 343 340 337 335 334 332 325 330 322 330 326 319 311 300 295 293 290 289 284 272 265 259 255 252 251 245 239 237 234 233 232 234 233 234 250 256 256
350 350 351 351 350 348 345 342 340 336 335 334 329 337 329 334 329 328 313 302 288 283 288 286 281 279 274 261 260 252 246 240 238 237 236 232 234 234 233 233 241 251 255
351 352 353 351 348 348 345 338 338 337 337 337 334 349 345 329 329 326 325 319 309 283 281 278 275 272 272 268 256 257 251 243 241 237 234 232 232 233 234 236 240 244 251
355 354 353 351 346 347 346 346 339 341 343 342 343 348 347 342 333 331 327 328 322 311 293 277 266 264 263 261 249 235 246 247 248 240 234 230 228 228 231 233 238 242 249
354 353 353 352 352 350 347 345 340 341 337 334 339 344 344 348 344 335 328 330 323 315 303 281 272 259 261 258 258 239 238 252 259 242 232 234 230 227 228 232 234 241 245
354 354 353 352 351 351 349 346 342 345 348 350 346 347 346 345 347 347 340 321 321 324 310 297 275 249 251 250 257 247 240 237 244 250 264 232 230 228 226 227 232 237 240
356 356 356 354 352 354 350 347 346 346 345 352 350 351 346 351 352 349 346 339 323 330 322 320 291 245 248 252 260 247 239 232 230 235 240 251 240 226 224 224 229 231 228
Wind_Speed_850mb
32 37 41 43 47 48 49 50 50 50 45 42 41 38 32 28 21 24 28 27 20 19 15 14 23 25 25 23 24 21 21 20 21 22 21 23 24 26 27 27 27 18 26
29 36 45 48 48 48 48 49 49 48 49 47 43 41 37 36 31 22 20 22 25 24 20 20 16 18 27 28 28 28 25 24 22 22 20 21 23 24 25 26 23 19 22
33 40 50 50 47 48 49 48 48 48 48 47 45 43 42 41 40 36 33 28 24 18 25 24 27 26 20 26 31 31 31 31 28 27 26 20 18 25 24 25 23 22 19
35 44 53 59 59 58 55 50 48 47 45 45 46 45 42 38 38 38 37 35 34 27 23 27 29 30 36 32 26 33 35 34 34 31 27 21 22 29 26 25 24 22 21
37 43 49 61 62 59 53 51 50 49 48 46 45 42 43 42 40 39 37 36 39 42 35 29 27 39 34 38 38 34 33 40 40 37 29 28 27 28 30 29 26 23 23
41 45 51 65 64 63 62 60 57 54 53 51 47 44 44 43 43 43 40 38 36 41 44 36 28 27 28 37 38 42 44 38 41 38 33 35 38 31 36 32 29 29 31
45 50 52 65 67 68 69 69 66 63 59 50 49 49 48 47 46 45 44 40 40 37 41 38 35 22 24 24 29 42 44 49 45 41 36 36 34 40 40 39 35 33 37
44 46 47 52 60 67 69 69 66 55 46 47 51 47 46 45 45 44 44 40 41 40 43 35 35 35 30 25 21 31 48 52 50 54 47 33 36 47 45 45 42 40 41
43 47 52 50 55 58 61 63 61 63 62 58 53 50 50 48 44 44 46 47 50 47 44 38 37 33 34 34 30 28 39 49 47 39 58 47 36 48 48 49 50 47 45
49 52 52 51 53 56 57 55 58 59 59 57 58 59 54 56 48 48 48 50 51 55 47 42 40 38 36 33 31 34 38 50 40 50 45 54 60 51 52 50 53 55 53
51 52 49 50 50 51 51 50 52 50 50 49 46 46 48 42 43 45 44 46 46 48 45 45 42 42 39 51 55 46 46 30 36 31 40 49 58 56 50 53 51 56 56
58 55 52 50 50 51 47 49 46 47 46 46 45 42 40 41 41 44 48 49 55 53 47 47 43 45 48 41 34 43 43 35 32 31 30 46 43 50 56 52 52 52 57
54 52 53 49 51 50 50 46 43 46 45 43 43 46 41 39 37 36 36 34 33 35 38 37 39 38 36 37 34 35 37 39 37 34 30 45 45 42 44 55 54 59 51
52 52 52 49 48 47 45 48 48 48 49 43 47 48 43 41 37 34 34 35 35 32 33 34 35 36 36 39 39 38 40 42 40 35 45 48 43 43 38 35 47 53 56
52 52 50 50 47 50 48 51 47 49 48 47 51 48 43 44 42 37 33 34 36 36 35 32 33 35 35 37 40 39 39 42 44 40 35 47 51 43 44 38 40 47 51
52 53 51 51 49 50 47 50 47 47 47 49 45 44 43 43 43 41 42 40 35 34 36 34 32 32 34 34 36 38 39 38 41 43 41 34 47 50 45 46 43 42 40
51 53 50 55 49 52 51 47 49 47 49 46 48 46 45 44 43 44 44 44 43 36 33 33 35 35 34 33 36 35 38 39 39 44 43 40 34 41 47 49 47 47 46
51 47 54 52 53 52 50 48 47 48 49 49 49 47 52 49 46 46 47 46 45 41 35 29 30 34 35 35 35 36 37 39 39 43 44 42 39 34 32 44 47 49 49
48 50 52 55 52 55 50 45 46 46 47 48 45 44 51 50 51 50 51 47 42 42 40 36 29 28 33 37 37 38 38 39 41 42 45 45 42 37 34 34 39 46 50
46 49 50 50 50 53 45 45 45 45 52 50 49 50 48 51 52 50 48 44 40 39 39 37 34 29 27 30 37 41 39 41 41 44 43 48 44 40 37 35 29 32 42
48 49 49 52 53 52 49 53 52 57 61 53 41 47 47 52 50 48 42 39 37 38 36 37 35 33 30 25 29 37 43 43 44 46 46 46 47 43 38 37 33 31 31
51 49 49 52 52 51 48 52 54 60 54 49 49 49 49 49 46 40 42 37 37 36 36 35 34 33 28 25 24 28 37 41 47 50 51 51 53 49 45 41 35 33 30
51 50 53 53 52 51 51 54 56 51 48 46 50 54 61 49 44 39 34 34 36 35 34 34 36 38 36 25 23 26 17 31 32 35 49 53 52 54 50 44 39 34 30
50 46 49 53 53 49 50 53 53 55 57 55 55 54 58 53 45 37 38 36 37 35 34 34 34 36 36 34 25 30 43 25 11 23 31 43 52 55 52 47 42 36 32
47 45 48 51 50 50 51 48 51 56 54 61 56 55 56 56 46 43 34 33 32 35 32 36 29 32 34 34 28 23 26 36 38 32 25 25 44 54 55 51 43 38 33
45 46 49 52 51 49 52 49 48 53 55 63 63 62 62 58 53 47 47 38 29 29 28 24 17 21 27 32 28 26 27 25 31 36 39 33 33 44 51 50 46 38 32
Wind_Direction_850mb
347 350 348 355 354 353 351 351 347 340 341 341 344 340 339 332 335 340 337 335 320 293 281 282 275 269 260 257 251 251 256 254 248 245 245 245 244 243 244 241 242 243 241
345 341 338 341 347 348 347 344 343 341 335 333 331 329 333 323 307 317 318 320 314 317 284 260 258 262 261 256 251 246 250 254 250 247 247 249 250 245 242 243 233 225 241
344 338 331 335 341 340 339 337 336 334 330 330 329 328 324 322 321 315 308 302 299 311 307 284 264 258 252 254 253 248 244 246 249 250 251 249 247 249 239 235 232 228 224
339 331 328 325 326 327 330 333 329 328 325 322 320 318 318 317 316 313 311 303 300 291 277 288 272 264 257 250 247 247 242 240 244 254 252 244 240 253 238 229 224 232 214
336 332 326 320 321 322 328 329 328 324 323 320 315 310 308 307 307 308 307 302 296 284 282 266 288 257 260 256 251 244 241 241 238 239 238 237 236 243 237 230 228 230 216
334 331 326 319 318 318 317 318 320 320 316 314 310 306 302 301 298 298 297 296 299 290 275 277 286 280 280 261 255 249 242 239 239 239 235 232 235 230 236 231 229 224 226
333 328 325 318 315 313 313 313 312 312 312 311 307 303 298 295 293 290 291 291 290 295 284 273 285 263 258 277 278 255 251 244 243 237 233 230 236 237 233 231 233 229 229
331 329 328 325 321 317 315 314 314 318 314 310 308 302 298 293 289 286 287 281 284 288 282 287 284 280 272 246 266 274 247 243 241 244 238 233 234 232 232 230 233 234 237
335 334 334 333 329 326 323 320 317 313 310 306 305 298 294 293 287 283 277 281 280 283 281 281 279 281 275 271 245 247 257 252 243 244 241 245 247 238 238 239 237 236 239
338 335 335 335 333 330 328 328 322 321 320 314 305 299 296 291 290 285 283 285 279 277 278 275 272 275 274 268 259 232 242 244 248 242 245 241 245 249 242 240 242 245 243
336 336 334 334 336 335 335 331 333 331 330 329 323 314 309 302 290 288 285 284 281 276 272 268 268 268 272 259 247 237 240 247 244 248 241 242 240 241 245 243 242 244 246
335 336 334 331 333 335 333 331 332 332 330 329 326 324 318 308 298 287 287 286 279 275 266 262 261 265 265 265 260 252 248 245 249 244 244 241 237 239 238 244 244 242 244
333 331 333 331 331 333 333 333 328 326 328 327 322 322 323 314 308 300 294 290 284 280 275 268 266 265 259 253 253 250 245 245 248 242 246 248 241 237 240 238 245 249 244
335 334 335 333 332 332 327 328 330 331 333 330 328 324 323 322 313 305 298 290 287 280 274 269 263 259 258 255 253 253 249 247 248 250 241 247 252 245 239 240 240 249 245
338 336 337 338 334 334 329 332 331 330 332 330 327 330 333 322 317 311 303 295 285 281 276 271 263 261 258 255 250 249 250 246 245 245 246 246 247 249 244 242 238 242 248
339 338 337 338 336 337 331 332 334 336 330 328 325 325 326 318 316 312 310 301 290 283 275 271 266 260 256 254 251 246 248 246 242 241 239 245 245 245 246 243 242 244 246
341 339 336 339 337 339 336 336 335 333 329 325 323 322 324 326 321 315 308 303 298 284 280 278 271 262 260 258 252 249 247 248 246 241 238 235 244 245 244 247 247 246 247
342 342 341 342 341 340 342 337 335 331 328 325 321 320 323 327 328 319 310 304 300 297 290 277 270 265 260 255 252 250 248 244 243 240 234 234 233 231 251 241 243 249 252
347 342 342 345 344 342 339 340 336 332 330 326 323 320 322 325 330 323 314 302 299 291 290 286 276 267 261 255 254 251 247 244 239 238 234 232 230 231 234 248 243 248 252
348 346 346 347 347 344 343 340 337 335 334 332 325 330 322 330 326 319 311 300 295 293 290 289 284 272 265 259 255 252 251 245 239 237 234 233 232 234 233 234 250 256 256
350 350 351 351 350 348 345 342 340 336 335 334 329 337 329 334 329 328 313 302 288 283 288 286 281 279 274 261 260 252 246 240 238 237 236 232 234 234 233 233 241 251 255
351 352 353 351 348 348 345 338 338 337 337 337 334 349 345 329 329 326 325 319 309 283 281 278 275 272 272 268 256 257 251 243 241 237 234 232 232 233 234 236 240 244 251
355 354 353 351 346 347 346 346 339 341 343 342 343 348 347 342 333 331 327 328 322 311 293 277 266 264 263 261 249 235 246 247 248 240 234 230 228 228 231 233 238 242 249
354 353 353 352 352 350 347 345 340 341 337 334 339 344 344 348 344 335 328 330 323 315 303 281 272 259 261 258 258 239 238 252 259 242 232 234 230 227 228 232 234 241 245
354 354 353 352 351 351 349 346 342 345 348 350 346 347 346 345 347 347 340 321 321 324 310 297 275 249 251 250 257 247 240 237 244 250 264 232 230 228 226 227 232 237 240
356 356 356 354 352 354 350 347 346 346 345 352 350 351 346 351 352 349 346 339 323 330 322 320 291 245 248 252 260 247 239 232 230 235 240 251 240 226 224 224 229 231 228